Location: Seattle
(47.6064°N, 122.3308°W)
Time: 01:57:31
(UTC-08:00)

A-11 Canister half - Pass Details

Date: 01 December 2020
Orbit: 1524 x 1684 km, 47.3° (Epoch: 21 January)

Event Time Altitude Azimuth Distance (km) Brightness Sun altitude
Rises 03:54:41 0° 201° (SSW) 4,918 - -36.7°
Reaches altitude 10° 03:58:19 10° 191° (S) 3,938 - -36.1°
Exits shadow 03:59:16 13° 188° (S) 3,702 10.8 -35.9°
Maximum altitude 04:06:44 31° 134° (SE) 2,634 10.4 -34.7°
Drops below altitude 10° 04:15:05 10° 78° (ENE) 3,919 11.9 -33.3°
Sets 04:18:39 0° 69° (ENE) 4,891 12.6 -32.7°
